When you browse on this site, cookies collect data to enhance your experience and personalize the content and advertising you see.
Visit our Privacy Policy to learn more. By continuing to use the site, you agree to this use of cookies and data.
  • en France
  • Liste des pays
  • À 7 jours
  • Température de l'eau
  • Carte météo
  • Widgets météo
  • user-avatar
    Se connecter

    Météo par heure à Tuokou

    Ce jour, 19 Septembre, Jeudi

    Heure Température Précipitation Vent Pression Humidité
    00:00 +21°C° 0 mm 1 m/s 742 mmHg 87%
    01:00 +20°C° 0 mm 1 m/s 742 mmHg 88%
    02:00 +20°C° 0 mm 1 m/s 742 mmHg 89%
    03:00 +19°C° 0 mm 1 m/s 742 mmHg 90%
    04:00 +19°C° 0 mm 1 m/s 742 mmHg 91%
    05:00 +20°C° 0 mm 1 m/s 742 mmHg 88%
    06:00 +21°C° 0 mm 1 m/s 743 mmHg 84%
    07:00 +22°C° 0 mm 1 m/s 743 mmHg 82%
    08:00 +23°C° 0 mm 1 m/s 743 mmHg 76%
    09:00 +25°C° 0 mm 1 m/s 743 mmHg 70%
    10:00 +27°C° 0 mm 1 m/s 743 mmHg 64%
    11:00 +28°C° 0 mm 1 m/s 742 mmHg 62%
    12:00 +29°C° 0 mm 2 m/s 741 mmHg 60%
    13:00 +29°C° 0 mm 2 m/s 741 mmHg 59%
    14:00 +29°C° 0 mm 2 m/s 740 mmHg 61%
    15:00 +29°C° 0 mm 1 m/s 740 mmHg 62%
    16:00 +28°C° 0 mm 1 m/s 739 mmHg 64%
    17:00 +27°C° 0 mm 1 m/s 739 mmHg 70%
    18:00 +25°C° 0 mm 1 m/s 740 mmHg 76%
    19:00 +24°C° 0 mm 1 m/s 740 mmHg 82%
    20:00 +23°C° 0 mm 1 m/s 740 mmHg 82%
    21:00 +23°C° 0 mm 1 m/s 741 mmHg 82%
    22:00 +22°C° 0 mm 1 m/s 741 mmHg 83%
    23:00 +22°C° 0 mm 1 m/s 741 mmHg 83%

    Demain, 20 Septembre, Vendredi

    Heure Température Précipitation Vent Pression Humidité
    00:00 +19°C° 0 mm 0 m/s 741 mmHg 82%
    01:00 +19°C° 0 mm 0 m/s 740 mmHg 82%
    02:00 +19°C° 0 mm 0 m/s 740 mmHg 83%
    03:00 +18°C° 0 mm 0 m/s 740 mmHg 84%
    04:00 +18°C° 0 mm 0 m/s 739 mmHg 85%
    05:00 +19°C° 0 mm 0 m/s 740 mmHg 82%
    06:00 +20°C° 0 mm 0 m/s 740 mmHg 79%
    07:00 +21°C° 0 mm 0 m/s 741 mmHg 76%
    08:00 +24°C° 0 mm 1 m/s 741 mmHg 70%
    09:00 +26°C° 0 mm 2 m/s 741 mmHg 64%
    10:00 +28°C° 0 mm 2 m/s 741 mmHg 57%
    11:00 +29°C° 0 mm 2 m/s 740 mmHg 54%
    12:00 +30°C° 0 mm 3 m/s 739 mmHg 51%
    13:00 +31°C° 0 mm 3 m/s 739 mmHg 48%
    14:00 +31°C° 0 mm 3 m/s 739 mmHg 49%
    15:00 +30°C° 0 mm 3 m/s 738 mmHg 50%
    16:00 +30°C° 0 mm 3 m/s 738 mmHg 51%
    17:00 +28°C° 0 mm 2 m/s 738 mmHg 57%
    18:00 +26°C° 0 mm 2 m/s 739 mmHg 62%
    19:00 +24°C° 0 mm 2 m/s 739 mmHg 68%
    20:00 +24°C° 0 mm 2 m/s 740 mmHg 69%
    21:00 +24°C° 0 mm 1 m/s 740 mmHg 70%
    22:00 +23°C° 0 mm 1 m/s 741 mmHg 71%
    23:00 +23°C° 0 mm 1 m/s 741 mmHg 72%

    Après-demain, 21 Septembre, Samedi

    Heure Température Précipitation Vent Pression Humidité
    00:00 +23°C° 0 mm 1 m/s 740 mmHg 73%
    01:00 +22°C° 0 mm 1 m/s 740 mmHg 74%
    02:00 +22°C° 0 mm 1 m/s 740 mmHg 73%
    03:00 +22°C° 0 mm 1 m/s 740 mmHg 72%
    04:00 +22°C° 0 mm 1 m/s 740 mmHg 72%
    05:00 +22°C° 0 mm 1 m/s 740 mmHg 72%
    06:00 +22°C° 0 mm 1 m/s 740 mmHg 73%
    07:00 +22°C° 0 mm 1 m/s 741 mmHg 74%
    08:00 +23°C° 0 mm 1 m/s 741 mmHg 73%
    09:00 +23°C° 0 mm 1 m/s 741 mmHg 73%
    10:00 +24°C° 0 mm 1 m/s 741 mmHg 72%
    11:00 +24°C° 0 mm 1 m/s 741 mmHg 71%
    12:00 +25°C° 0 mm 2 m/s 740 mmHg 69%
    13:00 +25°C° 0 mm 2 m/s 740 mmHg 67%
    14:00 +26°C° 0 mm 3 m/s 740 mmHg 63%
    15:00 +27°C° 0 mm 3 m/s 740 mmHg 59%
    16:00 +28°C° 0 mm 3 m/s 739 mmHg 54%
    17:00 +26°C° 0 mm 2 m/s 740 mmHg 61%
    18:00 +24°C° 0 mm 1 m/s 740 mmHg 68%
    19:00 +22°C° 0 mm 1 m/s 740 mmHg 74%
    20:00 +22°C° 0 mm 1 m/s 741 mmHg 76%
    21:00 +21°C° 0 mm 1 m/s 741 mmHg 77%
    22:00 +21°C° 0 mm 1 m/s 742 mmHg 79%
    23:00 +20°C° 0 mm 1 m/s 742 mmHg 78%

    22 Septembre, Dimanche

    Heure Température Précipitation Vent Pression Humidité
    00:00 +20°C° 0 mm 1 m/s 742 mmHg 78%
    01:00 +19°C° 0 mm 1 m/s 742 mmHg 78%
    02:00 +19°C° 0 mm 1 m/s 742 mmHg 80%
    03:00 +18°C° 0 mm 1 m/s 742 mmHg 81%
    04:00 +18°C° 0 mm 1 m/s 742 mmHg 82%
    05:00 +19°C° 0 mm 1 m/s 742 mmHg 79%
    06:00 +20°C° 0 mm 1 m/s 743 mmHg 75%
    07:00 +21°C° 0 mm 1 m/s 743 mmHg 72%
    08:00 +23°C° 0 mm 2 m/s 743 mmHg 62%
    09:00 +25°C° 0 mm 3 m/s 743 mmHg 51%
    10:00 +27°C° 0 mm 5 m/s 743 mmHg 41%
    11:00 +28°C° 0 mm 4 m/s 743 mmHg 39%
    12:00 +28°C° 0 mm 4 m/s 742 mmHg 37%
    13:00 +29°C° 0 mm 4 m/s 742 mmHg 35%
    14:00 +29°C° 0 mm 4 m/s 742 mmHg 37%
    15:00 +28°C° 0 mm 3 m/s 742 mmHg 39%
    16:00 +28°C° 0 mm 3 m/s 741 mmHg 41%
    17:00 +26°C° 0 mm 2 m/s 742 mmHg 47%
    18:00 +23°C° 0 mm 2 m/s 742 mmHg 53%
    19:00 +21°C° 0 mm 1 m/s 742 mmHg 59%
    20:00 +20°C° 0 mm 1 m/s 743 mmHg 61%
    21:00 +20°C° 0 mm 1 m/s 743 mmHg 63%
    22:00 +19°C° 0 mm 1 m/s 743 mmHg 65%
    23:00 +17°C° 0 mm 0 m/s 743 mmHg 67%

    23 Septembre, Lundi

    Heure Température Précipitation Vent Pression Humidité
    00:00 +16°C° 0 mm 0 m/s 743 mmHg 69%
    01:00 +16°C° 0 mm 0 m/s 743 mmHg 71%
    02:00 +15°C° 0 mm 0 m/s 743 mmHg 73%
    03:00 +15°C° 0 mm 0 m/s 743 mmHg 74%
    04:00 +15°C° 0 mm 0 m/s 743 mmHg 76%
    05:00 +16°C° 0 mm 0 m/s 743 mmHg 74%
    06:00 +17°C° 0 mm 0 m/s 744 mmHg 72%
    07:00 +18°C° 0 mm 0 m/s 745 mmHg 70%
    08:00 +22°C° 0 mm 1 m/s 745 mmHg 62%
    09:00 +25°C° 0 mm 1 m/s 745 mmHg 53%
    10:00 +27°C° 0 mm 2 m/s 745 mmHg 45%
    11:00 +28°C° 0 mm 2 m/s 744 mmHg 42%
    12:00 +29°C° 0 mm 2 m/s 744 mmHg 39%
    13:00 +30°C° 0 mm 3 m/s 743 mmHg 36%
    14:00 +30°C° 0 mm 2 m/s 743 mmHg 37%
    15:00 +29°C° 0 mm 2 m/s 742 mmHg 39%
    16:00 +29°C° 0 mm 2 m/s 742 mmHg 41%
    17:00 +26°C° 0 mm 1 m/s 742 mmHg 47%
    18:00 +24°C° 0 mm 1 m/s 743 mmHg 53%
    19:00 +20°C° 0 mm 0 m/s 743 mmHg 59%
    20:00 +19°C° 0 mm 0 m/s 743 mmHg 60%
    21:00 +19°C° 0 mm 0 m/s 743 mmHg 62%
    22:00 +18°C° 0 mm 0 m/s 744 mmHg 64%
    23:00 +17°C° 0 mm 0 m/s 744 mmHg 66%

    24 Septembre, Mardi

    Heure Température Précipitation Vent Pression Humidité
    00:00 +17°C° 0 mm 0 m/s 744 mmHg 69%
    01:00 +16°C° 0 mm 0 m/s 744 mmHg 71%
    02:00 +16°C° 0 mm 0 m/s 743 mmHg 73%
    03:00 +15°C° 0 mm 0 m/s 743 mmHg 75%
    04:00 +15°C° 0 mm 0 m/s 743 mmHg 77%
    05:00 +16°C° 0 mm 0 m/s 744 mmHg 75%
    06:00 +17°C° 0 mm 0 m/s 744 mmHg 72%
    07:00 +18°C° 0 mm 0 m/s 744 mmHg 70%
    08:00 +23°C° 0 mm 1 m/s 745 mmHg 61%
    09:00 +25°C° 0 mm 1 m/s 745 mmHg 51%
    10:00 +28°C° 0 mm 1 m/s 745 mmHg 42%
    11:00 +29°C° 0 mm 2 m/s 744 mmHg 39%
    12:00 +30°C° 0 mm 2 m/s 744 mmHg 36%
    13:00 +30°C° 0 mm 2 m/s 743 mmHg 32%
    14:00 +30°C° 0 mm 2 m/s 743 mmHg 34%
    15:00 +30°C° 0 mm 1 m/s 742 mmHg 37%
    16:00 +30°C° 0 mm 1 m/s 742 mmHg 39%
    17:00 +28°C° 0 mm 1 m/s 742 mmHg 43%
    18:00 +23°C° 0 mm 0 m/s 743 mmHg 48%
    19:00 +21°C° 0 mm 0 m/s 743 mmHg 53%
    20:00 +21°C° 0 mm 0 m/s 743 mmHg 54%
    21:00 +21°C° 0 mm 0 m/s 744 mmHg 55%
    22:00 +20°C° 0 mm 0 m/s 744 mmHg 57%
    23:00 +20°C° 0 mm 0 m/s 744 mmHg 58%
    Voir plus